TimeEST,TemperatureF,Dew PointF,Humidity,Sea Level PressureIn,VisibilityMPH,Wind Direction,Wind SpeedMPH,Gust SpeedMPH,PrecipitationIn,Events,Conditions,WindDirDegrees,DateUTC
12:15 AM,35.6,35.6,100,30.26,2.5,Calm,Calm,-,N/A,,Clear,0,2012-11-20 05:15:00
12:35 AM,35.6,35.6,100,30.25,1.2,Calm,Calm,-,N/A,,Mist,0,2012-11-20 05:35:00
12:55 AM,35.6,35.6,100,30.24,0.2,Calm,Calm,-,N/A,Fog,Fog,0,2012-11-20 05:55:00
1:15 AM,35.6,35.6,100,30.23,0.2,Calm,Calm,-,N/A,Fog,Fog,0,2012-11-20 06:15:00
1:35 AM,35.6,35.6,100,30.23,1.2,Calm,Calm,-,N/A,,Mostly Cloudy,0,2012-11-20 06:35:00
1:55 AM,37.4,37.4,100,30.23,4.0,Calm,Calm,-,N/A,,Mostly Cloudy,0,2012-11-20 06:55:00
2:15 AM,39.2,39.2,100,30.22,2.5,Calm,Calm,-,N/A,,Overcast,0,2012-11-20 07:15:00
2:35 AM,37.4,37.4,100,30.22,1.5,Calm,Calm,-,N/A,,Overcast,0,2012-11-20 07:35:00
2:55 AM,37.4,37.4,100,30.21,1.2,Calm,Calm,-,N/A,,Overcast,0,2012-11-20 07:55:00
3:15 AM,41.0,41.0,100,30.20,2.5,Calm,Calm,-,N/A,,Scattered Clouds,0,2012-11-20 08:15:00
3:35 AM,41.0,41.0,100,30.20,2.5,Calm,Calm,-,N/A,,Clear,0,2012-11-20 08:35:00
7:15 AM,35.6,35.6,100,30.22,0.8,Calm,Calm,-,N/A,,Mist,0,2012-11-20 12:15:00
7:35 AM,35.6,35.6,100,30.22,1.2,Calm,Calm,-,N/A,,Mist,0,2012-11-20 12:35:00
7:55 AM,37.4,37.4,100,30.22,1.2,Calm,Calm,-,N/A,,Mist,0,2012-11-20 12:55:00
8:15 AM,37.4,37.4,100,30.23,3.0,Calm,Calm,-,N/A,,Clear,0,2012-11-20 13:15:00
8:35 AM,39.2,39.2,100,30.23,3.0,Calm,Calm,-,N/A,,Clear,0,2012-11-20 13:35:00
8:55 AM,41.0,41.0,100,30.24,2.5,WNW,4.6,-,N/A,,Scattered Clouds,300,2012-11-20 13:55:00
9:15 AM,39.2,39.2,100,30.24,1.8,Calm,Calm,-,N/A,,Scattered Clouds,0,2012-11-20 14:15:00
9:35 AM,41.0,41.0,100,30.24,3.0,Calm,Calm,-,N/A,,Clear,0,2012-11-20 14:35:00
9:55 AM,42.8,42.8,100,30.24,5.0,Calm,Calm,-,N/A,,Clear,0,2012-11-20 14:55:00
10:15 AM,44.6,42.8,93,30.24,10.0,Calm,Calm,-,N/A,,Clear,0,2012-11-20 15:15:00
10:35 AM,46.4,41.0,81,30.23,10.0,Calm,Calm,-,N/A,,Clear,0,2012-11-20 15:35:00
10:55 AM,50.0,41.0,71,30.22,10.0,SE,3.5,-,N/A,,Clear,140,2012-11-20 15:55:00
11:15 AM,51.8,41.0,67,30.21,10.0,WSW,3.5,-,N/A,,Clear,250,2012-11-20 16:15:00
11:35 AM,51.8,41.0,67,30.20,10.0,SE,3.5,-,N/A,,Clear,140,2012-11-20 16:35:00
11:55 AM,51.8,41.0,67,30.19,10.0,Calm,Calm,-,N/A,,Clear,0,2012-11-20 16:55:00
12:15 PM,53.6,41.0,62,30.17,10.0,Calm,Calm,-,N/A,,Scattered Clouds,0,2012-11-20 17:15:00
12:35 PM,53.6,42.8,67,30.16,10.0,SSW,3.5,-,N/A,,Scattered Clouds,210,2012-11-20 17:35:00
12:55 PM,55.4,42.8,63,30.15,10.0,SW,4.6,-,N/A,,Scattered Clouds,230,2012-11-20 17:55:00
1:15 PM,55.4,42.8,63,30.14,10.0,SSW,4.6,-,N/A,,Scattered Clouds,210,2012-11-20 18:15:00
1:35 PM,59.0,42.8,55,30.13,10.0,SSE,5.8,-,N/A,,Scattered Clouds,160,2012-11-20 18:35:00
1:55 PM,59.0,41.0,51,30.12,10.0,SW,5.8,-,N/A,,Scattered Clouds,220,2012-11-20 18:55:00
2:15 PM,59.0,41.0,51,30.11,10.0,SSW,5.8,-,N/A,,Scattered Clouds,200,2012-11-20 19:15:00
2:35 PM,59.0,41.0,51,30.10,10.0,Calm,Calm,-,N/A,,Scattered Clouds,0,2012-11-20 19:35:00
3:15 PM,60.8,37.4,42,30.09,10.0,Calm,Calm,-,N/A,,Clear,0,2012-11-20 20:15:00
3:35 PM,60.8,37.4,42,30.09,10.0,South,3.5,-,N/A,,Clear,180,2012-11-20 20:35:00
3:55 PM,60.8,39.2,45,30.10,10.0,Calm,Calm,-,N/A,,Clear,0,2012-11-20 20:55:00
4:15 PM,60.8,39.2,45,30.10,10.0,South,3.5,-,N/A,,Clear,190,2012-11-20 21:15:00
4:35 PM,59.0,41.0,51,30.10,10.0,Calm,Calm,-,N/A,,Clear,0,2012-11-20 21:35:00
4:55 PM,59.0,41.0,51,30.10,10.0,Calm,Calm,-,N/A,,Clear,0,2012-11-20 21:55:00
5:15 PM,51.8,44.6,76,30.10,10.0,Calm,Calm,-,N/A,,Clear,0,2012-11-20 22:15:00
5:35 PM,48.2,42.8,82,30.10,10.0,Calm,Calm,-,N/A,,Clear,0,2012-11-20 22:35:00
5:55 PM,44.6,42.8,93,30.11,10.0,Calm,Calm,-,N/A,,Clear,0,2012-11-20 22:55:00
6:15 PM,44.6,41.0,87,30.12,10.0,Calm,Calm,-,N/A,,Clear,0,2012-11-20 23:15:00
6:35 PM,42.8,39.2,87,30.12,10.0,Calm,Calm,-,N/A,,Clear,0,2012-11-20 23:35:00
6:55 PM,42.8,41.0,93,30.13,10.0,Calm,Calm,-,N/A,,Clear,0,2012-11-20 23:55:00
7:15 PM,41.0,37.4,87,30.13,10.0,Calm,Calm,-,N/A,,Clear,0,2012-11-21 00:15:00
7:35 PM,41.0,37.4,87,30.14,10.0,Calm,Calm,-,N/A,,Clear,0,2012-11-21 00:35:00
7:55 PM,39.2,37.4,93,30.14,10.0,Calm,Calm,-,N/A,,Clear,0,2012-11-21 00:55:00
8:15 PM,41.0,41.0,100,30.14,10.0,Calm,Calm,-,N/A,,Clear,0,2012-11-21 01:15:00
8:35 PM,37.4,35.6,93,30.14,10.0,Calm,Calm,-,N/A,,Clear,0,2012-11-21 01:35:00
8:55 PM,41.0,41.0,100,30.14,10.0,South,3.5,-,N/A,,Clear,170,2012-11-21 01:55:00
9:15 PM,35.6,35.6,100,30.14,7.0,Calm,Calm,-,N/A,,Clear,0,2012-11-21 02:15:00
9:35 PM,37.4,35.6,93,30.15,7.0,Calm,Calm,-,N/A,,Clear,0,2012-11-21 02:35:00
9:55 PM,35.6,35.6,100,30.15,7.0,Calm,Calm,-,N/A,,Clear,0,2012-11-21 02:55:00
10:15 PM,33.8,33.8,100,30.15,5.0,Calm,Calm,-,N/A,,Clear,0,2012-11-21 03:15:00
10:35 PM,37.4,37.4,100,30.15,7.0,Calm,Calm,-,N/A,,Clear,0,2012-11-21 03:35:00
10:55 PM,33.8,33.8,100,30.15,4.0,Calm,Calm,-,N/A,,Clear,0,2012-11-21 03:55:00
11:15 PM,35.6,35.6,100,30.16,4.0,WNW,3.5,-,N/A,,Clear,300,2012-11-21 04:15:00
11:35 PM,33.8,33.8,100,30.16,4.0,Calm,Calm,-,N/A,,Clear,0,2012-11-21 04:35:00
11:55 PM,33.8,33.8,100,30.15,3.0,NNW,3.5,-,N/A,,Clear,340,2012-11-21 04:55:00